Location: Dodgeville
(42.9600°N, 90.1300°W)
Time: 00:29:15
(UTC-05:00)

Uosat F - Visible Passes

Search period start: 01 November 2014 00:00
Search period end: 10 November 2014 23:00
Orbit: 752 x 761 km, 98.7° (Epoch: 31 October)

Date Brightness Start Highest point End Pass type
(mag) Time Alt. Az. Time Alt. Az. Time Alt. Az.
01 Nov 13.1 04:42:47 10° NE 04:46:57 25° E 04:51:05 10° SSE visible
01 Nov 11.5 06:21:09 10° N 06:25:50 40° WNW 06:30:30 10° SW visible
02 Nov 14.2 03:06:26 10° ENE 03:07:21 10° E 03:08:15 10° E visible
02 Nov 11.0 04:41:44 10° NNE 04:46:49 90° ESE 04:51:51 10° SSW visible
03 Nov 12.4 04:02:50 10° NNE 04:07:34 39° E 04:12:15 10° SSE visible
03 Nov 12.0 05:41:59 10° N 05:46:10 27° WNW 05:50:20 10° WSW visible
04 Nov 13.7 03:24:51 10° NE 03:28:05 17° E 03:31:18 10° SE visible
04 Nov 11.1 05:02:17 10° N 05:07:15 59° WNW 05:12:11 10° SSW visible
05 Nov 11.5 04:23:07 10° NNE 04:28:07 60° ESE 04:33:05 10° S visible
05 Nov 12.4 06:03:02 10° NNW 06:06:25 18° WNW 06:09:48 10° WSW visible
05 Nov 14.7 17:20:50 10° W 17:21:41 10° W 17:22:31 10° WNW visible
06 Nov 13.1 03:44:33 10° NE 03:48:45 26° E 03:52:55 10° SSE visible
06 Nov 11.5 05:22:58 10° N 05:27:38 39° WNW 05:32:16 10° SW visible
07 Nov 14.1 03:07:58 10° ENE 03:09:09 11° E 03:10:20 10° ESE visible
07 Nov 11.0 04:43:32 10° NNE 04:48:37 88° WNW 04:53:38 10° SSW visible
08 Nov 12.3 04:04:37 10° NNE 04:09:22 40° E 04:14:03 10° SSE visible
08 Nov 12.0 05:43:48 10° N 05:47:57 26° WNW 05:52:04 10° WSW visible
09 Nov 13.7 03:26:35 10° NE 03:29:53 17° E 03:33:10 10° SE visible
09 Nov 11.1 05:04:05 10° N 05:09:02 58° WNW 05:13:57 10° SSW visible
10 Nov 11.5 04:24:53 10° NNE 04:29:54 62° ESE 04:34:52 10° S visible
10 Nov 12.4 06:04:52 10° NNW 06:08:11 18° WNW 06:11:30 10° WSW visible
10 Nov 14.7 17:23:08 10° W 17:23:28 10° W 17:23:49 10° W visible
